Location: Burzi?i
(45.0869°N, 16.0577°E)
Time: 11:55:26
(UTC+00:00)

Cosmos 2227 Rocket - Pass Details

Date: 29 October 2020
Orbit: 839 x 845 km, 71.0° (Epoch: 27 November)

Event Time Altitude Azimuth Distance (km) Brightness Sun altitude
Rises 16:51:59 0° 334° (NNW) 3,407 5.6 -11.9°
Reaches altitude 10° 16:54:26 10° 335° (NNW) 2,469 4.9 -12.3°
Maximum altitude 17:00:08 84° 64° (ENE) 854 2.1 -13.3°
Drops below altitude 10° 17:05:47 10° 153° (SSE) 2,458 4.4 -14.3°
Sets 17:08:13 0° 154° (SSE) 3,389 5.1 -14.7°
